[[{"header":{"parameterUnit":"m.s-1","parameterCategory":1,"la1":30.2991,"la2":30.254,"lo1":-89.0895,"lo2":-89.0444,"dy":0.0017,"dx":0.0017,"nx":28,"ny":28,"refTime":"2024-06-07T21:00:00:Z","depth":0,"parameterNumber":2,"parameterNumberName":"U-component_of_WINDS"},"data":[0,0,0,0,0,0,0,0,0,0,0,0,0,0,0,0,0,0,0,0,0,0,0,0,0,0,0,0,0,0,0,0,0,0,0,0,0,0,0,0,0,0,0,0,0,0,0,0,0,0,0,0,0,0,0,0,0,0,-0.5719,-0.5717,0,-0.5602,-0.5601,-0.56,-0.5584,-0.5585,-0.5586,-0.5587,-0.5466,-0.5461,-0.5457,0,0,0,0,0,0,0,0,0,0,0,0,0,-0.5925,-0.5921,-0.5719,-0.5717,-0.5716,-0.5603,-0.5601,-0.5599,-0.5584,-0.5585,-0.5587,-0.5588,-0.5467,-0.5462,-0.5457,0,0,0,0,0,0,0,0,0,0,0,0,0,-0.5824,-0.592,-0.5719,-0.5694,-0.5691,-0.5603,-0.5601,-0.5599,-0.5584,-0.5585,-0.5587,-0.5588,-0.5469,-0.5462,-0.5456,-0.5383,0,0,-0.5436,-0.5434,0,0,0,0,0,0,0,0,-0.583,-0.5817,-0.5699,-0.5696,-0.5692,-0.561,-0.5629,-0.5527,-0.5583,-0.5624,-0.5587,-0.5589,-0.5512,-0.5502,-0.5477,-0.5378,-0.5373,-0.5436,-0.5432,-0.5429,-0.5427,0,0,0,0,0,0,0,-0.5837,-0.5822,-0.5673,-0.5698,-0.5693,-0.5688,-0.5676,-0.561,-0.556,-0.5621,-0.5619,-0.5606,-0.551,-0.5483,-0.5474,-0.5371,-0.5436,-0.543,-0.5426,-0.5424,-0.5206,-0.5205,0,0,0,0,0,0,-0.5849,-0.5828,-0.5676,-0.5669,-0.5767,-0.5683,-0.567,-0.5634,-0.5561,-0.5551,-0.5605,-0.5606,-0.5493,-0.5481,-0.5469,-0.5379,-0.5429,-0.5423,-0.542,-0.5208,-0.5206,-0.5204,0,0,0,0,0,0,-0.5853,-0.5836,-0.5681,-0.5748,-0.5728,-0.5678,-0.5639,-0.5631,-0.5604,-0.5549,-0.554,-0.5586,-0.5494,-0.5478,-0.5405,-0.5374,-0.542,-0.5415,-0.5211,-0.5208,-0.5205,-0.5198,0,0,0,0,0,0,-0.5859,-0.5837,-0.581,-0.5748,-0.5724,-0.5619,-0.5637,-0.5628,-0.5593,-0.5593,-0.5529,-0.5519,-0.5494,-0.5415,-0.5399,-0.5366,-0.541,-0.5213,-0.5209,-0.5206,-0.5201,-0.5195,-0.5191,0,0,0,0,0,-0.5867,-0.5812,-0.5808,-0.579,-0.5689,-0.5618,-0.5604,-0.5577,-0.5591,-0.5562,-0.5527,-0.5522,-0.5381,-0.5407,-0.5389,-0.5355,-0.5215,-0.521,-0.5206,-0.5203,-0.5196,-0.5191,0,0,0,0,0,0,-0.587,-0.5803,-0.5799,-0.5722,-0.5676,-0.5615,-0.5578,-0.557,-0.5519,-0.5521,-0.5488,-0.5473,-0.5402,-0.5371,-0.5402,-0.528,-0.5299,-0.5291,-0.5303,-0.5296,-0.5291,-0.5299,-0.5404,0,0,0,0,0,-0.5863,-0.5811,-0.5755,-0.5693,-0.567,-0.5628,-0.5596,-0.5579,-0.5529,-0.5509,-0.5469,-0.542,-0.5365,-0.5329,-0.5275,-0.5197,-0.5182,-0.5164,-0.5159,-0.5155,-0.5148,-0.5104,-0.5095,-0.5189,-0.519,-0.519,0,0,-0.5845,-0.5802,-0.5771,-0.5692,-0.5654,-0.5601,-0.5612,-0.5554,-0.5514,-0.55,-0.5429,-0.5397,-0.5341,-0.5265,-0.5229,-0.5237,-0.5119,-0.515,-0.5147,-0.5142,-0.5098,-0.5089,-0.5082,-0.5187,-0.5187,-0.5188,0,0,-0.5786,-0.5749,-0.5692,-0.5655,-0.5598,-0.5571,-0.5557,-0.5498,-0.5477,-0.5405,-0.5393,-0.5345,-0.525,-0.5211,-0.5178,-0.5105,-0.5098,-0.5088,-0.5061,-0.5018,-0.5011,-0.5004,-0.4977,-0.4968,-0.5082,-0.5082,-0.5082,0,-0.5771,-0.5691,-0.5664,-0.5608,-0.5573,-0.5559,-0.5502,-0.5466,-0.5394,-0.537,-0.538,-0.5262,-0.5223,-0.5137,-0.512,-0.5094,-0.5077,-0.5095,-0.5015,-0.5007,-0.5001,-0.4974,-0.4965,-0.5081,-0.5081,-0.5081,-0.5081,0,-0.5675,-0.562,-0.5581,-0.5513,-0.5474,-0.5417,-0.5381,-0.5345,-0.5332,-0.5304,-0.523,-0.5183,-0.512,-0.5099,-0.5084,-0.5011,-0.5017,-0.5021,-0.5039,-0.4991,-0.4966,-0.4956,-0.508,-0.508,-0.508,-0.508,0,0,-0.5613,-0.5532,-0.5518,-0.5487,-0.5424,-0.538,-0.5323,-0.5262,-0.5231,-0.5182,-0.5132,-0.5053,-0.5057,-0.502,-0.5002,-0.4965,-0.4909,-0.4973,-0.4971,-0.4962,-0.4824,-0.482,-0.4809,-0.4905,-0.4903,-0.4901,-0.4828,0,-0.5546,-0.5444,-0.5419,-0.5331,-0.5279,-0.5266,-0.5216,-0.5171,-0.5144,-0.5095,-0.5064,-0.5008,-0.5018,-0.4996,-0.4958,-0.4924,-0.4881,-0.4929,-0.4857,-0.4855,-0.487,-0.4796,-0.4792,-0.4725,-0.4818,-0.4817,-0.4816,0,-0.5453,-0.5403,-0.5311,-0.5254,-0.5232,-0.5187,-0.5129,-0.5083,-0.5032,-0.5015,-0.4974,-0.496,-0.4899,-0.4921,-0.4837,-0.487,-0.4839,-0.4818,-0.4815,-0.4806,-0.4831,-0.4784,-0.4703,-0.4693,-0.48,-0.4801,-0.4802,0,-0.5416,-0.5326,-0.5259,-0.5233,-0.5166,-0.5134,-0.5105,-0.5056,-0.5021,-0.497,-0.4947,-0.489,-0.4858,-0.4813,-0.4784,-0.4803,-0.4701,-0.4721,-0.4684,-0.4685,-0.4662,-0.4663,-0.4574,-0.4644,-0.4645,-0.4645,-0.4645,0,-0.5342,-0.5286,-0.5241,-0.52,-0.5136,-0.5108,-0.5046,-0.5016,-0.4972,-0.4925,-0.491,-0.4865,-0.4829,-0.4779,-0.4756,-0.4689,-0.4675,-0.4658,-0.4652,-0.4659,-0.4661,-0.4637,-0.4641,-0.4642,-0.4643,-0.4643,-0.4644,0,-0.5289,-0.5257,-0.5183,-0.5126,-0.5111,-0.5066,-0.5017,-0.4976,-0.4949,-0.4888,-0.4873,-0.4829,-0.477,-0.4736,-0.4661,-0.4646,-0.4571,-0.4568,-0.4588,-0.4585,-0.455,-0.4553,-0.4441,-0.4424,-0.4507,-0.4506,-0.4506,0,-0.5244,-0.52,-0.5139,-0.5107,-0.5077,-0.5024,-0.4989,-0.496,-0.4923,-0.4862,-0.4829,-0.4769,-0.4719,-0.4625,-0.4586,-0.4529,-0.4524,-0.4488,-0.4515,-0.4523,-0.4522,-0.4524,-0.4519,-0.4483,-0.4482,-0.4482,-0.4481,0,-0.5166,-0.5153,-0.5102,-0.5047,-0.5005,-0.4959,-0.4914,-0.4888,-0.4851,-0.4811,-0.4751,-0.4712,-0.4636,-0.4577,-0.4517,-0.4486,-0.4477,-0.4474,-0.4462,-0.4467,-0.448,-0.4472,-0.4574,-0.4476,-0.4476,-0.4477,-0.4477,-0.4477,-0.5115,-0.5075,-0.5026,-0.4971,-0.4934,-0.4892,-0.4851,-0.4819,-0.4769,-0.4705,-0.4691,-0.4627,-0.4578,-0.4496,-0.4464,-0.4413,-0.4419,-0.4402,-0.4398,-0.4394,-0.4392,-0.449,-0.4402,-0.4402,-0.4402,-0.4402,-0.4402,0,-0.5035,-0.5004,-0.4953,-0.4891,-0.4847,-0.4844,-0.4794,-0.4758,-0.4702,-0.4657,-0.4609,-0.454,-0.4482,-0.4439,-0.438,-0.4348,-0.4343,-0.4333,-0.4335,-0.4328,-0.439,-0.4406,-0.4339,-0.4339,-0.4339,-0.4339,-0.4339,-0.4339,-0.4989,-0.4922,-0.4903,-0.4818,-0.4786,-0.4724,-0.4696,-0.4657,-0.4621,-0.4545,-0.4497,-0.447,-0.4426,-0.4364,-0.4311,-0.43,-0.4278,-0.4269,-0.4258,-0.4317,-0.4323,-0.433,-0.4344,-0.4265,-0.4265,-0.4199,-0.4198,-0.4198]},{"header":{"parameterUnit":"m.s-1","parameterCategory":1,"la1":30.2991,"la2":30.254,"lo1":-89.0895,"lo2":-89.0444,"dy":0.0017,"dx":0.0017,"nx":28,"ny":28,"refTime":"2024-06-07T21:00:00:Z","depth":0,"parameterNumber":3,"parameterNumberName":"V-component_of_WINDS"},"data":[0,0,0,0,0,0,0,0,0,0,0,0,0,0,0,0,0,0,0,0,0,0,0,0,0,0,0,0,0,0,0,0,0,0,0,0,0,0,0,0,0,0,0,0,0,0,0,0,0,0,0,0,0,0,0,0,0,0,0.5851,0.5852,0,0.5887,0.5888,0.5888,0.5826,0.5823,0.5821,0.5819,0.5858,0.5861,0.5864,0,0,0,0,0,0,0,0,0,0,0,0,0,0.5729,0.5732,0.5851,0.5852,0.5852,0.5887,0.5888,0.5888,0.5826,0.5823,0.5821,0.5818,0.5857,0.5861,0.5864,0,0,0,0,0,0,0,0,0,0,0,0,0,0.5775,0.5732,0.5851,0.5825,0.5823,0.5887,0.5888,0.5888,0.5827,0.5823,0.582,0.5817,0.5856,0.586,0.5865,0.5956,0,0,0.5879,0.588,0,0,0,0,0,0,0,0,0.5773,0.578,0.5829,0.5827,0.5825,0.5849,0.5859,0.5911,0.5827,0.5825,0.5819,0.5816,0.5858,0.5862,0.5876,0.5958,0.5959,0.5879,0.5882,0.5884,0.5885,0,0,0,0,0,0,0,0.577,0.5778,0.5866,0.583,0.5827,0.5812,0.5815,0.5868,0.5859,0.5825,0.5821,0.5826,0.5856,0.5871,0.5876,0.596,0.5879,0.5883,0.5886,0.5887,0.6114,0.6118,0,0,0,0,0,0,0.577,0.5776,0.5864,0.5867,0.5791,0.5817,0.582,0.5844,0.5858,0.5857,0.5829,0.5823,0.5865,0.5871,0.5877,0.5981,0.5884,0.5888,0.589,0.6111,0.6115,0.6119,0,0,0,0,0,0,0.5767,0.5778,0.5863,0.582,0.583,0.5822,0.585,0.5847,0.5862,0.5861,0.5859,0.5846,0.5863,0.5871,0.5936,0.5982,0.589,0.5894,0.6107,0.6112,0.6117,0.6192,0,0,0,0,0,0,0.5764,0.5778,0.5812,0.5821,0.5832,0.5921,0.5853,0.585,0.5869,0.5862,0.5876,0.5876,0.5861,0.5929,0.594,0.5986,0.5897,0.6103,0.611,0.6115,0.6185,0.6199,0.621,0,0,0,0,0,0.576,0.5833,0.5814,0.5825,0.5875,0.5924,0.593,0.5911,0.5874,0.5908,0.5907,0.5875,0.5976,0.5936,0.5948,0.5996,0.61,0.6108,0.6115,0.6179,0.6196,0.621,0,0,0,0,0,0,0.5831,0.5834,0.5813,0.5892,0.5908,0.5913,0.5956,0.593,0.5958,0.595,0.5927,0.593,0.5999,0.6005,0.5961,0.6083,0.6031,0.6042,0.6076,0.6092,0.6105,0.61,0.5901,0,0,0,0,0,0.5856,0.5895,0.5896,0.5965,0.5974,0.5964,0.5985,0.5968,0.5984,0.5991,0.5995,0.6012,0.6047,0.607,0.6103,0.6187,0.6187,0.6225,0.6238,0.6248,0.6256,0.6297,0.6313,0.6143,0.6143,0.6143,0,0,0.5908,0.5914,0.5941,0.5979,0.599,0.603,0.597,0.6016,0.6045,0.5999,0.6058,0.6062,0.6079,0.6153,0.6186,0.6159,0.6304,0.6258,0.6266,0.6269,0.6306,0.6322,0.6337,0.6149,0.6148,0.6147,0,0,0.6022,0.6032,0.6088,0.61,0.6116,0.6108,0.6122,0.6131,0.6131,0.6191,0.6155,0.619,0.6252,0.6264,0.6279,0.6395,0.6366,0.6407,0.6472,0.6512,0.6525,0.6537,0.6574,0.6588,0.6416,0.6416,0.6416,0,0.6084,0.6142,0.6121,0.6168,0.6185,0.6144,0.62,0.6212,0.6239,0.6251,0.6222,0.6296,0.6306,0.6379,0.6407,0.6422,0.6435,0.6404,0.6525,0.6536,0.6547,0.6582,0.6597,0.6421,0.642,0.642,0.6419,0,0.6216,0.6257,0.6301,0.6325,0.6347,0.6399,0.6385,0.641,0.6393,0.6388,0.6448,0.6457,0.6489,0.6506,0.6491,0.6577,0.656,0.6529,0.6475,0.6568,0.66,0.6614,0.6427,0.6426,0.6424,0.6423,0,0,0.6375,0.6385,0.6401,0.641,0.6424,0.6455,0.6505,0.6534,0.6554,0.6575,0.6613,0.6666,0.6635,0.6652,0.6637,0.6673,0.6759,0.6636,0.6636,0.6655,0.6851,0.6871,0.6888,0.6741,0.6744,0.6746,0.6848,0,0.6484,0.6567,0.6548,0.663,0.6665,0.6626,0.6669,0.6682,0.6679,0.6709,0.6706,0.6741,0.6701,0.671,0.6744,0.6742,0.6798,0.6735,0.6775,0.6777,0.6767,0.6906,0.6928,0.7024,0.6861,0.6863,0.6865,0,0.6622,0.6644,0.6729,0.6734,0.6748,0.6786,0.681,0.684,0.6854,0.6849,0.6866,0.6844,0.6891,0.684,0.6904,0.6861,0.6877,0.6878,0.6882,0.6882,0.6824,0.6905,0.7054,0.7067,0.6886,0.6884,0.6883,0,0.6724,0.6776,0.6831,0.6841,0.685,0.6877,0.6882,0.6892,0.691,0.6932,0.6942,0.6971,0.6985,0.7007,0.6992,0.6957,0.7057,0.7005,0.7052,0.7052,0.7072,0.707,0.7221,0.7089,0.7089,0.7089,0.7089,0,0.6845,0.6897,0.6876,0.6911,0.6967,0.6946,0.7003,0.7003,0.7012,0.7045,0.7015,0.7047,0.7027,0.7057,0.7046,0.7098,0.7106,0.7102,0.7098,0.7102,0.7102,0.711,0.7101,0.7093,0.7092,0.7091,0.709,0,0.6967,0.6956,0.7013,0.7016,0.7018,0.7059,0.7061,0.7092,0.7087,0.7128,0.7137,0.7129,0.7162,0.715,0.7187,0.7179,0.7244,0.7234,0.7239,0.7234,0.728,0.7274,0.7438,0.7457,0.7317,0.7318,0.7319,0,0.7043,0.7082,0.7088,0.7107,0.7113,0.7145,0.7163,0.7144,0.7163,0.718,0.7208,0.7239,0.7261,0.7316,0.7313,0.734,0.7327,0.7383,0.7331,0.7333,0.7323,0.7319,0.7321,0.7392,0.7394,0.7395,0.7396,0,0.7178,0.717,0.7196,0.7219,0.724,0.7258,0.7273,0.7291,0.7272,0.7296,0.7328,0.7346,0.7382,0.7411,0.7435,0.744,0.7414,0.7413,0.7424,0.7427,0.7427,0.7423,0.7262,0.7409,0.7407,0.7406,0.7406,0.7405,0.7276,0.7307,0.7315,0.7344,0.7353,0.7368,0.7396,0.7393,0.742,0.7446,0.7434,0.747,0.7481,0.751,0.7518,0.7546,0.7525,0.7543,0.7546,0.755,0.7553,0.7426,0.7551,0.7551,0.7551,0.755,0.755,0,0.7406,0.7409,0.7436,0.7456,0.7479,0.7453,0.7468,0.7488,0.7521,0.7532,0.7555,0.7591,0.7619,0.7618,0.7644,0.7666,0.7655,0.7673,0.7669,0.767,0.7574,0.7559,0.7682,0.7682,0.7682,0.7682,0.7682,0.7682,0.7475,0.7525,0.7517,0.7571,0.7573,0.7608,0.7618,0.7631,0.7639,0.768,0.7703,0.7702,0.7708,0.7733,0.7757,0.7756,0.7765,0.7787,0.7782,0.7691,0.7677,0.7665,0.7651,0.7791,0.7791,0.7875,0.7876,0.7876]}]]